Tracking 19636 objects as of 25-May-2019
HD Live streaming from Space Station
objects crossing your sky now

JILIN-01-08

Track JILIN-01-08 now!
10-day predictions


NORAD ID: 43160
Int'l Code: 2018-008F
Perigee: 536.2 km
Apogee: 552.0 km
Inclination: 97.5 °
Period: 95.4 minutes
Semi major axis: 6915 km
RCS: Unknown
Launch date: January 19, 2018
Source: People's Republic of China (PRC)
Launch site: Jiuquan Satellite Launch Center, China (JSC)
aabbcc
Your satellite tracking list
Your tracking list is empty




NASA's NSSDC Master Catalog

Two Line Element Set (TLE):
1 43160U 18008F   19144.83242966 -.00000158  00000-0 -59352-5 0  9995
2 43160  97.4847 216.9434 0011400  61.6673  31.8624 15.09759563 74004
Source of the keplerian elements: AFSPC